TimeHST,TemperatureF,Dew PointF,Humidity,Sea Level PressureIn,VisibilityMPH,Wind Direction,Wind SpeedMPH,Gust SpeedMPH,PrecipitationIn,Events,Conditions,WindDirDegrees,DateUTC
12:53 AM,64.0,63.0,96,30.01,10.0,WSW,5.8,-,N/A,,Mostly Cloudy,250,2014-01-30 10:53:00
1:53 AM,64.9,62.1,90,29.98,10.0,South,5.8,-,N/A,,Scattered Clouds,170,2014-01-30 11:53:00
2:53 AM,66.0,62.1,87,29.94,10.0,SSW,6.9,-,N/A,,Scattered Clouds,200,2014-01-30 12:53:00
3:53 AM,64.0,61.0,90,29.94,10.0,WSW,6.9,-,N/A,,Scattered Clouds,240,2014-01-30 13:53:00
4:53 AM,64.9,61.0,87,29.94,10.0,SSW,5.8,-,N/A,,Partly Cloudy,200,2014-01-30 14:53:00
5:53 AM,64.0,61.0,90,29.95,10.0,SSW,4.6,-,N/A,,Scattered Clouds,210,2014-01-30 15:53:00
6:53 AM,66.0,62.1,87,29.97,10.0,SW,6.9,-,N/A,,Scattered Clouds,230,2014-01-30 16:53:00
7:53 AM,66.0,62.1,87,29.98,10.0,SSW,4.6,-,N/A,,Scattered Clouds,200,2014-01-30 17:53:00
8:53 AM,73.0,64.9,76,29.99,10.0,SSE,3.5,-,N/A,,Scattered Clouds,160,2014-01-30 18:53:00
9:53 AM,79.0,68.0,69,29.99,10.0,Variable,4.6,-,N/A,,Partly Cloudy,0,2014-01-30 19:53:00
10:53 AM,80.1,66.9,64,29.96,10.0,Variable,6.9,-,N/A,,Partly Cloudy,0,2014-01-30 20:53:00
11:53 AM,81.0,69.1,67,29.94,10.0,East,10.4,-,N/A,,Clear,90,2014-01-30 21:53:00
12:53 PM,81.0,68.0,65,29.91,10.0,East,13.8,-,N/A,,Partly Cloudy,100,2014-01-30 22:53:00
1:53 PM,81.0,70.0,69,29.88,10.0,ESE,11.5,-,N/A,,Partly Cloudy,110,2014-01-30 23:53:00
2:53 PM,80.1,68.0,67,29.86,10.0,East,12.7,-,N/A,,Clear,100,2014-01-31 00:53:00
3:53 PM,78.1,69.1,74,29.88,10.0,ESE,15.0,-,N/A,,Mostly Cloudy,110,2014-01-31 01:53:00
4:33 PM,69.1,68.0,96,29.90,2.0,SE,24.2,29.9,0.04,Rain,Rain,130,2014-01-31 02:33:00
4:53 PM,69.1,69.1,100,29.89,10.0,SW,4.6,-,0.18,Rain,Light Rain,220,2014-01-31 02:53:00
5:53 PM,70.0,70.0,100,29.90,10.0,West,4.6,-,0.01,,Overcast,280,2014-01-31 03:53:00
6:53 PM,69.1,66.9,93,29.92,10.0,South,3.5,-,N/A,,Scattered Clouds,180,2014-01-31 04:53:00
7:53 PM,66.9,66.9,100,29.94,10.0,SW,3.5,-,N/A,,Clear,230,2014-01-31 05:53:00
8:53 PM,66.0,66.0,100,29.94,10.0,WSW,4.6,-,N/A,,Clear,240,2014-01-31 06:53:00
9:53 PM,64.9,64.0,97,29.94,10.0,WSW,8.1,-,N/A,,Clear,240,2014-01-31 07:53:00
10:53 PM,64.9,63.0,93,29.93,10.0,SW,3.5,-,N/A,,Clear,220,2014-01-31 08:53:00
11:53 PM,64.0,63.0,96,29.92,10.0,SW,6.9,-,N/A,,Clear,220,2014-01-31 09:53:00